BEIDOU-3 G2

Last updated on Sun Apr 12 2026 00:02:55 GMT+0000 (Coordinated Universal Time)

1 45344U 20017A 26101.53655079 -.00000137 00000+0 00000+0 0 9990 2 45344 2.7300 46.2418 0002907 345.1671 81.5502 1.00271684 22592
UTC large
Height (km)
Speed (km/s)
/
Latitude / Longitude
Inclination (degrees)
Orbital Period (minutes)
Azimuth
Elevation
Range (km)
Doppler Factor

Next 0 passes for location: London (51.5072 / 0.1276)

Sorry there are no passes over London.
BEIDOU-3 G2